Location: Poughquag
(41.6090°N, 73.6820°W)
Time: 02:51:16
(UTC-04:00)

S-56A Canister/Altair - Pass Details

Date: 31 May 2020
Orbit: 633 x 2499 km, 38.9° (Epoch: 06 July)

Event Time Altitude Azimuth Distance (km) Brightness Sun altitude
Rises 13:25:20 0° 273° (W) 5,308 11.9 69.3°
Reaches altitude 10° 13:31:18 10° 251° (WSW) 4,668 11.9 68.8°
Maximum altitude 13:36:45 14° 226° (SW) 4,609 12.0 68.4°
Drops below altitude 10° 13:42:39 10° 202° (SSW) 5,082 12.2 67.8°
Sets 13:49:58 0° 180° (S) 6,162 12.4 67.0°
